User: anonymous   Login
Location: Newark
(37.8333°N, 119.5000°W)
Time: 22:13:24
(UTC+00:00)
Language:

SR - Orbit

View from above orbital plane
View from above orbital plane
View from above satellite
View from above satellite

Ground track
Ground track

The orbit data is extracted from the following two-line orbital elements,

1    46U 60007B   19232.88972610 -.00000033  00000-0  16617-4 0  9993
2    46  66.6907 141.3480 0210977 353.8858   5.9677 14.49239153 95406
Epoch (UTC): 20 August 2019 21:21:12
Eccentricity: 0.0210977
inclination: 66.6907°
perigee height: 578 km
apogee height: 878 km
right ascension of ascending node: 141.3480°
argument of perigee: 353.8858°
revolutions per day: 14.49239153
mean anomaly at epoch: 5.9677°
orbit number at epoch: 9540

The dashed part of the orbit path shows where the satellite is in the earth's shadow,  

DLR